Showing default

LEGION 6, 62901

Orbit data source: Space-Track

LEGION 6, 62901 is a payload satellite owned by Maxar Intel (US) in LEO that was launched on Tue, 04 Feb 2025 UTC via an FALCON 9 launch vehicle from the Air Force Eastern Test Range (AFETR). Payload-class satellites include a variety of spacecraft equipped with specific instruments for various scientific and technological missions. These include communications satellites like Starlink; space stations such as the ISS; scientific satellites like the Hubble; Earth observation satellites from companies like Planet Labs, Umbra, and HawkEye 360; GPS; miniature CubeSats for education and research; and military/defense satellites.

Loading next visibility...
Identifier
62901, 2025-025B
Orbit
LEO
Country
Flag of USUS
Related business
Manufacturer
Maxar Space Inf
Mission
Operational Commercial Imaging
Bus & Motor
LEGION, Unknown motor
Mass
~700 kg wet, 630 kg dry
Launch date (UTC)
2025-02-04 (2 years ago)
Launch vehicle
FALCON 9
Launch site
Air Force Eastern Test Range (AFETR)
Object type
Payload
Rocket body
Debris
Shape & HBR
Box + 1 Pan, 1.5 m
Radar Cross Section
9.079 m², Large (>1 m²)

Expand to show TLE details & history
Last TLE update: 11 hours ago

TLE from 11 hours ago
0 LEGION 6
1 62901U 25025B   26248.06795170  .00001441  00000-0  87339-4 0  9993
2 62901  45.0007 142.2396 0010648 216.3093 143.7064 15.15992014 87755
Epoch: 2026-09-05T01:37Z
TLE epoch observation values (Epoch: 2026-09-05T01:37:51.026Z)
Latitude
-0.00003°
Longitude
133.59423°
Altitude
523.888 km
Speed
7.6 km/s
True Right ascension
09h 28m 57s
True Declination
0° 00' 00"
Sunlit
Object was in daylight at epoch
Visualization orbit readout
Latitude
Unknown
Longitude
Unknown
Altitude
Unknown
Speed
Unknown
Apparent Right ascension
Unknown
Apparent Declination
Unknown
Sunlit
N/A
Visualization observer readout
Local Sidereal Time
04:29:38
Azimuth
Unknown
Elevation
Unknown
Doppler factor
Unknown
Orbital elements
Apogee altitude
526.914 km
Perigee altitude
512.225 km
Semi-major axis
6,897.707 km
Eccentricity
0.00106
Inclination
45.0007°
RAAN
142.2396°
Arg. of periapsis
216.3093°
True anomaly
143.77855°
Mean anomaly
143.7064°
Eccentric anomaly
143.74248°
Mean motion
3.78866 °/min
Orbital period
95.02 mins
BSTAR
0.000087339
Loading maneuver chart data...
Computing Atmospheric mass density...
Loading historical data...
Loading historical data...
Loading historical data...
Loading historical data...
Loading historical data...
Loading historical data...
Loading historical data...
Other satellites on launch #25 in the year 2025 (2025-02-04 UTC)

Documentation

Showing up to 5 results
|